[[{"header":{"parameterUnit":"m.s-1","parameterCategory":1,"la1":30.2991,"la2":30.254,"lo1":-89.0895,"lo2":-89.0444,"dx":0.0017,"dy":0.0017,"nx":28,"ny":28,"refTime":"2022-12-07T03:00:00:Z","depth":0,"parameterNumber":2,"parameterNumberName":"U-component_of_WINDS"},"data":[0,0,0,0,0,0,0,0,0,0,0,0,0,0,0,0,0,0,0,0,0,0,0,0,0,0,0,0,0,0,0,0,0,0,0,0,0,0,0,0,0,0,0,0,0,0,0,0,0,0,0,0,0,0,0,0,0,0,-0.6473,-0.6472,0,-0.6412,-0.6412,-0.6411,-0.6366,-0.6365,-0.6365,-0.6364,-0.6302,-0.63,-0.6299,0,0,0,0,0,0,0,0,0,0,0,0,0,-0.655,-0.6548,-0.6473,-0.6472,-0.6471,-0.6412,-0.6412,-0.6411,-0.6366,-0.6365,-0.6365,-0.6364,-0.6302,-0.63,-0.6299,0,0,0,0,0,0,0,0,0,0,0,0,0,-0.6505,-0.6548,-0.6473,-0.6442,-0.6438,-0.6413,-0.6412,-0.641,-0.6366,-0.6365,-0.6365,-0.6364,-0.6302,-0.6301,-0.6299,-0.6299,0,0,-0.6293,-0.6292,0,0,0,0,0,0,0,0,-0.6508,-0.6503,-0.6447,-0.6444,-0.644,-0.6396,-0.6415,-0.6373,-0.6366,-0.6393,-0.6364,-0.6364,-0.6333,-0.6329,-0.6319,-0.6296,-0.6293,-0.6293,-0.6291,-0.6291,-0.629,0,0,0,0,0,0,0,-0.6511,-0.6505,-0.6449,-0.6446,-0.6442,-0.6431,-0.6424,-0.6407,-0.6367,-0.6391,-0.6387,-0.6381,-0.6331,-0.6321,-0.6317,-0.6292,-0.6293,-0.6291,-0.629,-0.6289,-0.6266,-0.6267,0,0,0,0,0,0,-0.6519,-0.6508,-0.6451,-0.6447,-0.6473,-0.643,-0.6422,-0.6411,-0.6368,-0.636,-0.6382,-0.6379,-0.6324,-0.6319,-0.6315,-0.6311,-0.6291,-0.6289,-0.6288,-0.6266,-0.6267,-0.6267,0,0,0,0,0,0,-0.6521,-0.6514,-0.6453,-0.6476,-0.6468,-0.6429,-0.6417,-0.641,-0.6399,-0.636,-0.6353,-0.6378,-0.6324,-0.6317,-0.6303,-0.6309,-0.6288,-0.6286,-0.6265,-0.6266,-0.6267,-0.6306,0,0,0,0,0,0,-0.6523,-0.6515,-0.6515,-0.6477,-0.6467,-0.6443,-0.6417,-0.6409,-0.6396,-0.6392,-0.6355,-0.6348,-0.6323,-0.6306,-0.6301,-0.6306,-0.6285,-0.6264,-0.6266,-0.6267,-0.6304,-0.6308,-0.6311,0,0,0,0,0,-0.6526,-0.6528,-0.6515,-0.6508,-0.6465,-0.6443,-0.6437,-0.6408,-0.6397,-0.6396,-0.6371,-0.635,-0.6309,-0.6305,-0.6299,-0.6303,-0.6264,-0.6265,-0.6267,-0.6302,-0.6307,-0.6311,0,0,0,0,0,0,-0.6567,-0.6522,-0.6508,-0.6497,-0.6475,-0.6436,-0.6434,-0.6414,-0.6394,-0.6391,-0.6355,-0.6348,-0.6337,-0.6319,-0.6315,-0.6301,-0.6284,-0.6284,-0.6313,-0.6317,-0.6321,-0.6325,-0.6283,0,0,0,0,0,-0.6575,-0.6561,-0.6523,-0.6517,-0.6507,-0.6473,-0.6462,-0.6441,-0.6416,-0.6406,-0.638,-0.6356,-0.6338,-0.6327,-0.6308,-0.6301,-0.6293,-0.6301,-0.6305,-0.6308,-0.6308,-0.6303,-0.6307,-0.6271,-0.6271,-0.6271,0,0,-0.6591,-0.6565,-0.6558,-0.6525,-0.6505,-0.6491,-0.6464,-0.6451,-0.644,-0.6404,-0.6388,-0.6369,-0.634,-0.633,-0.6324,-0.6314,-0.6317,-0.631,-0.6313,-0.6311,-0.6305,-0.6308,-0.6311,-0.6272,-0.6272,-0.6272,0,0,-0.6613,-0.6592,-0.6585,-0.6566,-0.6536,-0.6513,-0.6512,-0.6476,-0.6462,-0.6446,-0.6419,-0.6406,-0.6376,-0.6356,-0.6342,-0.6359,-0.6338,-0.6354,-0.6373,-0.6368,-0.6371,-0.6373,-0.6378,-0.638,-0.6354,-0.6354,-0.6354,0,-0.6637,-0.6614,-0.6584,-0.6572,-0.6558,-0.6526,-0.6518,-0.6501,-0.6467,-0.6458,-0.6448,-0.6409,-0.6388,-0.6372,-0.6376,-0.6366,-0.6363,-0.6357,-0.6373,-0.6375,-0.6377,-0.6381,-0.6383,-0.6356,-0.6356,-0.6356,-0.6356,0,-0.6645,-0.663,-0.6628,-0.6596,-0.6582,-0.6572,-0.654,-0.653,-0.6511,-0.649,-0.6475,-0.6448,-0.6423,-0.6418,-0.6399,-0.64,-0.6395,-0.638,-0.6361,-0.6382,-0.6386,-0.6387,-0.6359,-0.6358,-0.6358,-0.6357,0,0,-0.6689,-0.6641,-0.6641,-0.6626,-0.6591,-0.6579,-0.6568,-0.6544,-0.6536,-0.6514,-0.6504,-0.648,-0.6465,-0.645,-0.6429,-0.6425,-0.6439,-0.641,-0.6409,-0.6416,-0.6438,-0.6449,-0.6451,-0.6426,-0.6426,-0.6426,-0.644,0,-0.6705,-0.6683,-0.6656,-0.6644,-0.6629,-0.6599,-0.659,-0.6568,-0.6548,-0.6533,-0.6511,-0.6494,-0.6477,-0.6467,-0.6462,-0.6438,-0.6443,-0.6437,-0.6415,-0.6415,-0.6422,-0.6453,-0.6464,-0.6478,-0.6441,-0.6441,-0.6441,0,-0.672,-0.6699,-0.6686,-0.6652,-0.6645,-0.6637,-0.6613,-0.66,-0.6574,-0.656,-0.6544,-0.6521,-0.6509,-0.6494,-0.6476,-0.6472,-0.6462,-0.6449,-0.6449,-0.6445,-0.6428,-0.6448,-0.6482,-0.6484,-0.6443,-0.6443,-0.6443,0,-0.6752,-0.6722,-0.6709,-0.6698,-0.6659,-0.6654,-0.6638,-0.6611,-0.6599,-0.6579,-0.657,-0.6549,-0.6536,-0.652,-0.6493,-0.6485,-0.6478,-0.6461,-0.6465,-0.6466,-0.6464,-0.6464,-0.6495,-0.646,-0.6459,-0.6459,-0.6459,0,-0.6772,-0.6764,-0.6724,-0.6716,-0.6707,-0.6676,-0.6668,-0.6649,-0.6627,-0.6615,-0.6588,-0.6577,-0.6542,-0.6528,-0.6507,-0.6495,-0.649,-0.6478,-0.6472,-0.6479,-0.6481,-0.6471,-0.6469,-0.646,-0.646,-0.646,-0.646,0,-0.6806,-0.6779,-0.6763,-0.6728,-0.6719,-0.6714,-0.6684,-0.6675,-0.6655,-0.664,-0.6635,-0.6602,-0.6584,-0.6555,-0.6529,-0.6514,-0.6506,-0.6497,-0.6514,-0.651,-0.6516,-0.6516,-0.6541,-0.6542,-0.6508,-0.6508,-0.6508,0,-0.682,-0.6813,-0.6778,-0.6768,-0.6752,-0.6737,-0.6724,-0.6694,-0.6682,-0.6653,-0.6648,-0.6628,-0.661,-0.6582,-0.6556,-0.6536,-0.6525,-0.6536,-0.6522,-0.653,-0.6524,-0.6525,-0.6524,-0.6538,-0.6539,-0.6539,-0.654,0,-0.6846,-0.6833,-0.6816,-0.6794,-0.678,-0.6761,-0.6741,-0.6735,-0.6701,-0.6689,-0.6669,-0.6656,-0.6629,-0.6609,-0.6585,-0.6568,-0.6548,-0.6545,-0.6544,-0.6551,-0.6561,-0.6555,-0.6521,-0.6544,-0.6543,-0.6543,-0.6543,-0.6543,-0.687,-0.6863,-0.6837,-0.6818,-0.68,-0.6782,-0.6773,-0.6751,-0.6735,-0.671,-0.6694,-0.6676,-0.6651,-0.6617,-0.6602,-0.6587,-0.6578,-0.6578,-0.6578,-0.6578,-0.6581,-0.6565,-0.6583,-0.6583,-0.6583,-0.6583,-0.6582,0,-0.6894,-0.6876,-0.686,-0.6833,-0.6819,-0.6802,-0.6779,-0.6768,-0.6753,-0.6731,-0.6715,-0.6693,-0.6674,-0.6647,-0.6626,-0.6619,-0.661,-0.6615,-0.6614,-0.6611,-0.659,-0.6592,-0.6623,-0.6623,-0.6623,-0.6623,-0.6623,-0.6623,-0.6905,-0.6892,-0.6876,-0.6854,-0.6836,-0.6818,-0.6806,-0.679,-0.6773,-0.675,-0.6734,-0.6716,-0.6693,-0.667,-0.6652,-0.6644,-0.6637,-0.6645,-0.6635,-0.6616,-0.6612,-0.6608,-0.661,-0.6644,-0.6644,-0.6656,-0.6656,-0.6656]},{"header":{"parameterUnit":"m.s-1","parameterCategory":1,"la1":30.2991,"la2":30.254,"lo1":-89.0895,"lo2":-89.0444,"dx":0.0017,"dy":0.0017,"nx":28,"ny":28,"refTime":"2022-12-07T03:00:00:Z","depth":0,"parameterNumber":3,"parameterNumberName":"V-component_of_WINDS"},"data":[0,0,0,0,0,0,0,0,0,0,0,0,0,0,0,0,0,0,0,0,0,0,0,0,0,0,0,0,0,0,0,0,0,0,0,0,0,0,0,0,0,0,0,0,0,0,0,0,0,0,0,0,0,0,0,0,0,0,3.2462,3.2461,0,3.2391,3.239,3.239,3.2361,3.2362,3.2362,3.2362,3.2286,3.2284,3.2282,0,0,0,0,0,0,0,0,0,0,0,0,0,3.257,3.2568,3.2462,3.2461,3.246,3.2391,3.239,3.2389,3.2361,3.2362,3.2362,3.2362,3.2287,3.2285,3.2282,0,0,0,0,0,0,0,0,0,0,0,0,0,3.2513,3.2567,3.2462,3.2438,3.2435,3.2392,3.239,3.2389,3.2361,3.2362,3.2362,3.2362,3.2288,3.2285,3.2282,3.2256,0,0,3.2272,3.227,0,0,0,0,0,0,0,0,3.2516,3.2509,3.2442,3.2439,3.2436,3.2385,3.2401,3.2344,3.2361,3.2389,3.2362,3.2362,3.2319,3.2313,3.2299,3.2252,3.2249,3.2271,3.2269,3.2268,3.2267,0,0,0,0,0,0,0,3.252,3.2512,3.2434,3.2441,3.2438,3.243,3.2422,3.239,3.2353,3.2387,3.2385,3.2377,3.2317,3.2302,3.2297,3.2248,3.2271,3.2268,3.2266,3.2265,3.2178,3.2177,0,0,0,0,0,0,3.2529,3.2516,3.2436,3.2432,3.2478,3.2428,3.2419,3.2401,3.2354,3.2347,3.2377,3.2376,3.2308,3.2301,3.2294,3.2262,3.2268,3.2265,3.2263,3.2178,3.2178,3.2177,0,0,0,0,0,0,3.2531,3.2522,3.2439,3.2473,3.2462,3.2425,3.2406,3.24,3.2385,3.2346,3.2339,3.2368,3.2308,3.2299,3.2266,3.2259,3.2263,3.226,3.2178,3.2178,3.2177,3.2197,0,0,0,0,0,0,3.2534,3.2523,3.2513,3.2473,3.246,3.2412,3.2405,3.2398,3.238,3.2378,3.2336,3.233,3.2307,3.2271,3.2263,3.2255,3.2258,3.2179,3.2178,3.2178,3.2196,3.2197,3.2197,0,0,0,0,0,3.2538,3.252,3.2513,3.2503,3.2447,3.2412,3.2404,3.238,3.2379,3.2369,3.2344,3.2331,3.2261,3.2268,3.2258,3.2249,3.2179,3.2178,3.2178,3.2196,3.2197,3.2197,0,0,0,0,0,0,3.2559,3.2514,3.2506,3.2474,3.2447,3.2407,3.2393,3.2381,3.2353,3.2352,3.2322,3.2313,3.2283,3.2262,3.2271,3.2222,3.2219,3.2216,3.2237,3.2237,3.2237,3.2243,3.2255,0,0,0,0,0,3.256,3.2536,3.2498,3.2474,3.2461,3.243,3.2413,3.2397,3.2368,3.2356,3.2328,3.2299,3.2271,3.2253,3.2224,3.2194,3.2184,3.2182,3.2183,3.2183,3.2181,3.2164,3.2163,3.2175,3.2175,3.2175,0,0,3.2561,3.2534,3.252,3.2477,3.2455,3.243,3.242,3.2394,3.2375,3.2351,3.2319,3.2298,3.2264,3.2232,3.2217,3.2214,3.2176,3.2182,3.2183,3.218,3.2163,3.2162,3.2161,3.2174,3.2174,3.2174,0,0,3.2552,3.2529,3.2507,3.2485,3.2451,3.2431,3.2426,3.2388,3.2374,3.2341,3.2323,3.23,3.2251,3.2228,3.221,3.2194,3.218,3.2185,3.2187,3.2171,3.217,3.2169,3.2163,3.2162,3.2183,3.2183,3.2183,0,3.2557,3.252,3.2497,3.2472,3.2454,3.2433,3.2411,3.239,3.2348,3.2336,3.2334,3.2274,3.2249,3.2212,3.2209,3.2194,3.2187,3.2189,3.2172,3.2171,3.2169,3.2164,3.2162,3.2184,3.2184,3.2184,3.2184,0,3.253,3.2504,3.2491,3.2453,3.2433,3.241,3.2382,3.2365,3.2351,3.2331,3.2298,3.2268,3.2234,3.2224,3.2209,3.2185,3.2185,3.2178,3.2174,3.217,3.2164,3.2162,3.2185,3.2185,3.2185,3.2184,0,0,3.253,3.2481,3.2476,3.246,3.2422,3.2401,3.2377,3.2345,3.2331,3.2303,3.2282,3.2243,3.2237,3.2216,3.2198,3.2184,3.2175,3.2179,3.2178,3.218,3.2147,3.2153,3.2151,3.2166,3.2165,3.2165,3.215,0,3.2515,3.2473,3.2452,3.2418,3.2394,3.2375,3.2354,3.2328,3.2309,3.2286,3.2264,3.2237,3.223,3.2218,3.2203,3.2179,3.2168,3.218,3.2146,3.2145,3.2155,3.2148,3.2153,3.2141,3.2148,3.2147,3.2147,0,3.2493,3.2467,3.2432,3.2398,3.2388,3.2369,3.2339,3.2317,3.2288,3.2275,3.2253,3.2236,3.221,3.2209,3.2172,3.2181,3.2165,3.2152,3.2151,3.2146,3.2146,3.2144,3.2136,3.2135,3.2143,3.2144,3.2144,0,3.2498,3.2454,3.2428,3.2414,3.2374,3.2361,3.2344,3.2315,3.2297,3.2271,3.2259,3.2229,3.2213,3.219,3.2165,3.2167,3.2131,3.2128,3.2119,3.212,3.2112,3.2113,3.2103,3.2103,3.2103,3.2103,3.2103,0,3.2484,3.2463,3.243,3.2413,3.2389,3.2365,3.2342,3.2322,3.2297,3.2276,3.2257,3.2238,3.2207,3.2184,3.2164,3.2137,3.213,3.2118,3.2113,3.212,3.2122,3.2109,3.211,3.2102,3.2102,3.2102,3.2102,0,3.2485,3.2462,3.2432,3.2397,3.2388,3.2372,3.2342,3.2325,3.2305,3.2279,3.2272,3.224,3.2212,3.2186,3.2148,3.2135,3.2108,3.2101,3.2118,3.2115,3.2109,3.211,3.209,3.2087,3.2089,3.2089,3.2089,0,3.2478,3.2462,3.2426,3.2412,3.2395,3.2372,3.2355,3.233,3.2313,3.2279,3.2266,3.2237,3.2212,3.2168,3.2141,3.2112,3.2105,3.21,3.2101,3.2108,3.2105,3.2107,3.2105,3.2101,3.2101,3.2101,3.2101,0,3.2469,3.2458,3.2435,3.2408,3.2389,3.2366,3.2342,3.2331,3.2302,3.2283,3.2255,3.2236,3.2198,3.2169,3.2138,3.2119,3.2105,3.2101,3.2098,3.2104,3.2115,3.211,3.212,3.2102,3.2102,3.2102,3.2102,3.2102,3.2466,3.2451,3.2424,3.2399,3.2379,3.2358,3.2341,3.232,3.2296,3.2265,3.2251,3.2223,3.2194,3.2151,3.2132,3.2109,3.2106,3.2101,3.2099,3.2099,3.21,3.2119,3.2103,3.2103,3.2103,3.2103,3.2103,0,3.2456,3.2438,3.2415,3.2384,3.2364,3.2354,3.2328,3.2312,3.2288,3.2263,3.224,3.2208,3.218,3.2152,3.2122,3.2109,3.2102,3.2103,3.2103,3.2099,3.2104,3.2111,3.2109,3.2109,3.2109,3.2109,3.2109,3.2109,3.2448,3.2423,3.241,3.2375,3.2356,3.233,3.2316,3.2296,3.2276,3.2242,3.2219,3.2202,3.2175,3.2144,3.2118,3.2111,3.2101,3.2103,3.2093,3.2099,3.2099,3.2098,3.2104,3.2101,3.2101,3.209,3.209,3.209]}]]